Edgbaston, United Kingdom

9:21 PM GMT on December 03, 2016 (GMT +0000)
Birmingham

Weather History for EGBB - February, 2014

Change the Weather History Date:

Monday, February 3, 2014

  Actual Average Record
Temperature  
Mean Temperature 42 °F -  
Max Temperature 44 °F 45 °F 57 °F (2004)
Min Temperature 39 °F 35 °F 17 °F (2012)
Degree Days  
Heating Degree Days 24    
Moisture  
Dew Point 38 °F    
Average Humidity 87    
Maximum Humidity 100    
Minimum Humidity 76    
Precipitation  
Precipitation 0.00 in - - ()
Sea Level Pressure  
Sea Level Pressure 29.54 in    
Wind  
Wind Speed 13 mph ()    
Max Wind Speed 21 mph    
Max Gust Speed -    
Visibility 6.2 miles    
Events Rain    
Averages and records for this station are not official NWS values.
T = Trace of Precipitation, MM = Missing Value Source: Averaged Metar Reports

Daily Weather History Graph

Daily Weather History Graph

Search for Another Location

Airport or City:

Trip Planner

Search our weather history database for the weather conditions in past years. The results will help you decide how hot, cold, wet, or windy it might be!

Date:

Astronomy

Feb. 03, 2014 Rise Set
Actual Time 7:45 AM GMT 4:56 PM GMT
Civil Twilight 7:08 AM GMT 5:33 PM GMT
Nautical Twilight 6:27 AM GMT 6:14 PM GMT
Astronomical Twilight 5:48 AM GMT 6:54 PM GMT
Moon 9:01 AM GMT 10:13 PM GMT
Length of Visible Light 10h 25m
Length of Day
9h 11m
Waxing Crescent, 17% of the Moon is Illuminated
Feb 3
Waxing Crescent
Feb 6
First Quarter
Feb 14
Full
Feb 22
Last Quarter
Mar 1
New

Hourly Weather History & Observations

Time (GMT) Temp. Windchill Dew Point Humidity Pressure Visibility Wind Dir Wind Speed Gust Speed Precip Events Conditions
12:20 AM 41.0 °F 33.5 °F 39.2 °F 93% 29.71 in - SSE 13.8 mph - N/A   Clear
12:50 AM 41.0 °F 34.3 °F 39.2 °F 93% 29.71 in 6.2 mi SSE 11.5 mph - N/A   Partly Cloudy
1:20 AM 39.2 °F 32.0 °F 39.2 °F 100% 29.68 in 6.2 mi SSE 11.5 mph - N/A   Scattered Clouds
1:50 AM 39.2 °F 32.5 °F 37.4 °F 93% 29.68 in 6.2 mi SSE 10.4 mph - N/A   Unknown
2:20 AM 39.2 °F 32.0 °F 37.4 °F 93% 29.68 in 6.2 mi South 11.5 mph - N/A   Unknown
2:50 AM 39.2 °F 32.0 °F 39.2 °F 100% 29.68 in 6.2 mi SSE 11.5 mph - N/A   Unknown
3:20 AM 41.0 °F 33.9 °F 39.2 °F 93% 29.65 in - SSE 12.7 mph - N/A   Clear
3:50 AM 41.0 °F 34.3 °F 39.2 °F 93% 29.65 in 6.2 mi SSE 11.5 mph - N/A   Scattered Clouds
4:20 AM 41.0 °F 35.2 °F 39.2 °F 93% 29.65 in 6.2 mi SSE 9.2 mph - N/A   Mostly Cloudy
4:50 AM 41.0 °F 34.3 °F 39.2 °F 93% 29.65 in 6.2 mi SSE 11.5 mph - N/A   Mostly Cloudy
5:20 AM 41.0 °F 34.3 °F 39.2 °F 93% 29.65 in 6.2 mi SSE 11.5 mph - N/A   Mostly Cloudy
5:50 AM 41.0 °F 33.1 °F 39.2 °F 93% 29.62 in 6.2 mi SE 15.0 mph - N/A   Mostly Cloudy
6:20 AM 41.0 °F 33.1 °F 39.2 °F 93% 29.62 in 6.2 mi SE 15.0 mph - N/A   Mostly Cloudy
6:50 AM 42.8 °F 35.4 °F 39.2 °F 87% 29.62 in 6.2 mi SSE 15.0 mph - N/A   Mostly Cloudy
7:20 AM 41.0 °F 33.1 °F 39.2 °F 93% 29.62 in 6.2 mi SSE 15.0 mph - N/A   Mostly Cloudy
7:50 AM 41.0 °F 32.8 °F 39.2 °F 93% 29.59 in 6.2 mi SE 16.1 mph - N/A   Scattered Clouds
8:20 AM 41.0 °F 32.5 °F 39.2 °F 93% 29.59 in 6.2 mi SE 17.3 mph - N/A   Scattered Clouds
8:50 AM 42.8 °F 34.3 °F 39.2 °F 87% 29.56 in 6.2 mi SE 19.6 mph - N/A   Partly Cloudy
9:20 AM 42.8 °F 34.5 °F 39.2 °F 87% 29.56 in 6.2 mi SE 18.4 mph - N/A   Scattered Clouds
9:50 AM 42.8 °F 35.1 °F 39.2 °F 87% 29.59 in 6.2 mi SE 16.1 mph - N/A   Mostly Cloudy
10:20 AM 42.8 °F 34.8 °F 39.2 °F 87% 29.56 in 6.2 mi SE 17.3 mph - N/A   Mostly Cloudy
10:50 AM 42.8 °F 34.3 °F 39.2 °F 87% 29.56 in 6.2 mi SSE 19.6 mph - N/A   Mostly Cloudy
11:20 AM 44.6 °F 36.9 °F 39.2 °F 81% 29.56 in 6.2 mi SSE 18.4 mph - N/A   Mostly Cloudy
11:50 AM 44.6 °F 36.6 °F 39.2 °F 81% 29.53 in 6.2 mi SE 19.6 mph - N/A   Mostly Cloudy
12:20 PM 44.6 °F 36.9 °F 39.2 °F 81% 29.53 in 6.2 mi SSE 18.4 mph - N/A   Mostly Cloudy
12:50 PM 44.6 °F 36.4 °F 39.2 °F 81% 29.53 in 6.2 mi SE 20.7 mph - N/A   Mostly Cloudy
1:20 PM 44.6 °F 36.9 °F 39.2 °F 81% 29.50 in 6.2 mi SE 18.4 mph - N/A   Mostly Cloudy
1:50 PM 44.6 °F 36.6 °F 39.2 °F 81% 29.50 in 6.2 mi SE 19.6 mph - N/A   Mostly Cloudy
2:20 PM 44.6 °F 36.4 °F 37.4 °F 76% 29.50 in 6.2 mi SE 20.7 mph - N/A   Mostly Cloudy
2:50 PM 42.8 °F 34.8 °F 37.4 °F 81% 29.50 in 6.2 mi SE 17.3 mph - N/A   Mostly Cloudy
3:20 PM 42.8 °F 35.1 °F 37.4 °F 81% 29.47 in 6.2 mi SE 16.1 mph - N/A   Mostly Cloudy
3:50 PM 42.8 °F 35.1 °F 37.4 °F 81% 29.47 in 6.2 mi SE 16.1 mph - N/A   Partly Cloudy
4:20 PM 42.8 °F 34.8 °F 35.6 °F 76% 29.47 in - SE 17.3 mph - N/A   Clear
4:50 PM 42.8 °F 35.4 °F 35.6 °F 76% 29.47 in - SE 15.0 mph - N/A   Clear
5:20 PM 41.0 °F 33.5 °F 35.6 °F 81% 29.47 in - ESE 13.8 mph - N/A   Clear
5:50 PM 41.0 °F 33.9 °F 35.6 °F 81% 29.44 in - ESE 12.7 mph - N/A   Clear
6:20 PM 41.0 °F 33.9 °F 35.6 °F 81% 29.44 in 6.2 mi SE 12.7 mph - N/A   Partly Cloudy
6:50 PM 41.0 °F 33.9 °F 35.6 °F 81% 29.44 in - SE 12.7 mph - N/A   Clear
7:20 PM 39.2 °F 32.5 °F 35.6 °F 87% 29.44 in 6.2 mi ESE 10.4 mph - N/A   Partly Cloudy
7:50 PM 39.2 °F 32.0 °F 35.6 °F 87% 29.42 in - ESE 11.5 mph - N/A   Clear
8:20 PM 39.2 °F 31.2 °F 35.6 °F 87% 29.42 in - ESE 13.8 mph - N/A   Clear
8:50 PM 39.2 °F 30.8 °F 35.6 °F 87% 29.42 in - SE 15.0 mph - N/A   Clear
9:20 PM 39.2 °F 30.5 °F 35.6 °F 87% 29.42 in 6.2 mi SE 16.1 mph - N/A   Scattered Clouds
9:50 PM 41.0 °F 33.1 °F 35.6 °F 81% 29.39 in 6.2 mi SE 15.0 mph - N/A Rain Light Rain
10:20 PM 41.0 °F 32.8 °F 37.4 °F 87% 29.39 in 6.2 mi SE 16.1 mph - N/A Rain Light Rain
10:50 PM 41.0 °F 33.1 °F 37.4 °F 87% 29.39 in 6.2 mi SE 15.0 mph - N/A Rain Light Rain
11:20 PM 41.0 °F 33.9 °F 37.4 °F 87% 29.36 in 6.2 mi SE 12.7 mph - N/A Rain Light Rain
11:50 PM 41.0 °F 34.3 °F 37.4 °F 87% 29.36 in 6.2 mi SE 11.5 mph - N/A   Overcast